Tracking 22440 objects as of 27-Feb-2021
HD Live streaming from Space Station
objects crossing your sky now

RAAVANA1

Track RAAVANA1 now!
10-day predictions
RAAVANA1 is classified as:


NORAD ID: 44330
Int'l Code: 1998-067QF
Perigee: 371.0 km
Apogee: 376.2 km
Inclination: 51.6 °
Period: 91.9 minutes
Semi major axis: 6744 km
RCS: Unknown
Launch date: November 20, 1998
Source: Democratic Socialist Republic of Sri Lanka (LKA)
Launch site: TYURATAM MISSILE AND SPACE COMPLEX (TTMTR)

Uplink (MHz):
Downlink (MHz): 437.375
Beacon (MHz): 437.375
Mode: 4800bps GMSK CW
Call sign: JG6YLE
Status: Active

aabbcc
Your satellite tracking list
Your tracking list is empty




NASA's NSSDC Master Catalog

Two Line Element Set (TLE):
1 44330U 98067QF  21057.60781183  .00037409  00000-0  34323-3 0  9994
2 44330  51.6344 133.2726 0003841 248.9421 111.1164 15.67349622 96699
Source of the keplerian elements: AFSPC